Wind_Speed
16 15 15 13 14 14 15 21 22 19 27 33 32 34 36 31 37 37 39 54 69 72 75 70 74 73 75 77 85 92 98 103 103 102 104 110 109 109 107 106 105 104 101 101
17 16 16 15 13 14 19 21 24 22 23 28 27 29 34 39 43 53 63 69 71 75 77 76 75 80 82 83 87 93 97 98 104 106 107 111 111 110 108 105 103 99 97 97
18 16 17 19 22 20 23 27 30 27 29 30 32 35 39 44 47 52 59 63 65 67 73 75 77 79 83 86 90 94 97 100 101 101 101 100 101 100 98 97 93 89 88 88
20 20 21 22 24 27 29 31 35 39 37 36 39 38 42 49 52 55 59 63 66 71 74 74 76 81 84 89 91 94 93 92 93 93 90 86 83 83 83 82 79 76 74 75
23 26 25 26 28 29 32 35 37 39 40 41 46 47 50 53 56 60 65 67 69 72 74 77 79 80 84 84 86 87 88 87 81 76 72 70 69 66 65 64 63 61 60 59
26 26 29 30 29 31 32 37 40 44 45 45 47 51 54 58 60 64 65 68 71 72 72 70 75 78 81 82 81 81 77 71 68 66 64 62 61 59 57 57 56 55 55 54
28 29 31 32 33 33 37 39 42 47 50 49 52 54 57 60 63 67 69 68 66 67 59 67 74 76 78 78 77 69 68 68 67 65 61 57 54 50 46 44 45 46 46 47
27 31 32 33 34 41 44 46 45 42 46 48 51 54 61 66 67 68 64 61 60 55 60 69 71 74 73 73 65 60 63 66 63 57 53 50 46 42 39 36 35 36 36 36
33 31 33 36 38 43 44 45 45 46 47 51 56 61 67 67 63 61 57 51 54 58 64 69 71 69 67 62 54 58 62 56 47 45 41 39 37 35 32 30 28 26 25 25
37 40 33 37 38 37 39 44 45 48 52 56 61 64 64 60 58 55 49 51 55 58 64 66 65 67 64 53 50 57 52 42 36 36 37 37 34 32 31 29 26 23 19 15
39 43 39 38 39 41 40 48 51 53 58 62 64 63 60 56 53 47 46 52 55 59 62 62 63 62 55 46 49 52 40 32 30 32 33 33 31 29 29 31 30 27 22 18
38 38 39 39 41 41 42 52 57 61 63 64 62 58 52 48 46 45 48 51 55 60 61 61 62 58 48 41 47 44 31 27 25 27 29 31 33 31 31 31 33 33 32 29
36 36 39 41 46 45 50 55 62 64 64 60 56 49 46 45 45 46 49 53 57 59 58 59 59 55 46 39 46 33 26 23 22 23 23 27 33 37 39 39 41 41 42 44
39 41 44 47 52 54 57 60 66 63 59 54 47 43 43 45 49 50 50 56 56 58 58 57 55 52 42 36 42 24 22 20 19 18 21 25 29 35 41 46 51 56 59 60
48 49 49 52 54 59 62 64 63 58 52 43 39 40 43 48 50 50 58 58 58 60 60 58 54 47 35 32 35 18 16 16 16 17 20 25 31 38 46 51 53 57 59 61
50 49 51 56 60 62 65 61 55 46 41 39 37 41 45 49 50 55 57 59 61 63 60 54 48 37 27 28 24 12 11 15 13 14 17 27 38 42 46 52 52 53 55 56
48 53 59 59 62 62 58 51 41 40 46 43 41 45 47 49 52 56 57 57 58 57 53 43 37 26 18 24 13 7 11 12 11 14 24 35 38 44 46 48 50 53 55 57
56 56 54 56 50 50 44 39 41 46 47 45 44 46 49 49 54 56 56 56 54 49 39 37 27 14 15 17 4 7 11 11 17 23 30 37 38 42 42 43 46 49 52 55
58 55 45 39 45 33 38 39 41 47 52 46 45 48 45 48 55 55 55 54 51 42 36 30 20 17 19 8 5 9 13 19 24 27 33 35 36 37 38 38 40 41 45 47
48 43 39 42 44 32 37 38 38 46 47 44 48 44 46 48 55 52 54 52 49 34 27 24 23 24 17 3 8 13 18 19 24 29 32 31 32 32 32 33 34 35 37 39
36 36 34 40 39 39 43 39 38 45 44 48 45 48 47 53 55 52 51 47 44 29 24 23 25 26 11 5 11 18 19 20 24 27 29 27 27 28 28 28 28 30 31 31
36 39 41 36 39 41 35 37 42 50 46 46 44 45 50 55 52 51 47 44 41 28 23 24 26 19 4 8 14 21 19 20 24 26 26 24 25 25 24 23 24 24 25 28
37 42 41 37 37 42 43 44 48 50 45 43 46 43 53 51 49 48 42 40 38 29 22 24 25 11 4 12 17 23 19 20 25 25 24 23 22 22 21 21 19 18 21 24
23 25 29 36 40 39 35 42 49 46 46 47 45 50 50 48 46 44 39 38 36 28 21 23 19 7 6 15 20 22 21 20 24 26 23 21 20 20 18 16 17 17 18 19
22 32 34 35 35 34 36 41 41 45 50 50 49 47 47 47 46 43 37 34 32 27 19 20 17 6 5 18 21 22 22 22 24 26 23 21 18 18 17 15 14 15 14 15
37 40 37 33 33 35 37 41 44 48 47 46 47 49 50 48 45 39 36 31 30 25 17 17 17 6 5 18 22 24 22 23 25 27 23 19 17 17 15 13 13 13 12 11
Wind_Direction
284 285 287 282 282 280 268 267 271 266 270 272 272 273 281 274 243 260 270 281 288 287 292 290 289 289 290 286 287 290 288 291 293 290 286 286 286 285 283 281 279 278 276 275
281 290 290 292 283 272 272 269 272 276 272 276 279 279 276 275 266 263 272 281 291 290 291 296 297 291 291 291 290 291 292 292 290 290 289 289 288 287 286 284 282 280 278 275
277 280 290 289 288 280 281 286 285 279 278 284 287 288 287 285 283 282 285 288 291 291 292 292 294 294 293 293 291 291 290 290 290 290 290 290 289 287 285 284 282 280 277 274
287 282 278 281 290 294 297 300 297 299 297 297 295 292 296 297 296 296 296 295 294 293 293 293 293 294 294 295 295 294 296 297 297 296 294 292 289 288 287 286 284 280 277 274
270 277 284 285 290 294 297 298 300 298 299 304 305 306 304 301 300 300 298 299 298 298 298 299 298 297 299 301 301 304 303 302 301 299 298 297 295 293 291 289 287 286 283 278
279 283 283 287 293 296 296 299 301 303 305 307 307 304 303 302 303 302 303 304 302 298 301 301 302 305 306 305 306 305 304 303 304 305 304 302 299 296 293 289 287 285 283 282
286 288 290 299 305 303 301 301 302 307 310 312 308 307 308 306 306 306 307 305 303 305 308 306 307 309 310 312 313 312 312 312 315 314 312 311 310 308 302 294 288 285 281 279
289 291 296 301 305 303 304 304 305 305 303 302 304 307 306 308 309 308 308 311 309 313 313 311 313 315 316 316 317 316 315 318 319 319 320 321 320 318 314 308 300 294 288 283
292 290 289 298 300 302 304 303 306 305 307 310 310 310 313 313 313 313 314 312 315 315 314 314 317 315 317 320 320 320 323 326 329 327 330 331 334 334 333 329 323 315 306 297
296 297 301 298 300 301 302 301 303 308 309 311 313 314 314 312 313 314 314 314 313 315 315 317 318 322 326 324 324 327 332 336 336 340 344 345 346 348 348 348 347 343 338 328
296 298 304 303 306 305 310 310 312 312 308 310 312 312 313 312 314 315 311 311 316 316 317 321 326 326 326 326 327 335 339 342 350 359 2 6 7 8 10 10 12 14 14 15
299 301 305 307 306 309 313 318 314 312 310 309 311 312 312 311 313 314 314 316 319 321 326 325 328 331 330 331 335 341 340 347 358 11 20 26 28 31 34 32 33 39 43 48
301 302 304 304 305 310 311 312 312 312 311 313 312 315 311 314 316 318 320 322 324 323 325 327 330 332 333 335 339 343 344 357 12 16 30 45 50 54 58 60 62 63 66 68
303 304 304 303 308 310 309 311 311 312 312 315 316 315 316 319 321 322 323 324 322 324 327 327 330 331 332 336 340 342 351 6 18 30 48 58 63 67 70 73 77 78 78 78
302 302 302 303 308 307 306 308 311 309 314 319 320 318 321 323 323 325 325 326 327 327 328 328 328 328 328 336 342 346 2 25 35 50 61 72 75 81 85 85 84 83 83 83
304 304 303 304 305 304 306 310 309 313 320 324 323 322 325 326 325 327 330 330 330 329 328 326 323 323 325 337 343 5 37 36 42 52 73 86 94 94 93 92 87 85 83 82
298 298 301 303 301 303 306 310 317 319 330 328 325 325 325 325 327 330 331 331 329 330 329 327 324 321 327 339 348 48 31 19 37 73 96 103 100 100 98 93 90 88 86 84
300 297 300 301 303 311 313 312 325 328 327 323 319 323 327 328 330 333 332 332 334 337 336 332 331 327 342 347 26 69 44 61 86 100 107 107 105 102 97 96 93 90 88 87
306 308 307 300 313 308 324 317 324 322 319 320 323 323 326 327 332 333 334 335 339 342 351 356 2 359 349 8 95 83 89 100 103 105 113 110 109 107 102 98 94 92 90 88
300 296 294 300 311 311 320 313 314 322 320 319 318 323 327 327 332 334 336 337 342 342 349 354 357 354 352 80 115 111 120 118 116 119 116 117 112 110 106 102 97 93 89 87
290 281 293 307 302 302 311 310 307 313 315 316 324 326 325 326 333 336 338 338 340 340 342 346 349 348 358 128 133 134 136 128 128 127 128 121 117 117 112 105 99 93 90 88
276 275 287 293 296 301 307 306 303 311 312 321 323 322 321 327 332 334 336 336 342 339 341 343 347 352 27 152 145 148 146 140 139 138 136 127 125 123 118 112 102 95 93 91
276 278 285 293 295 295 296 300 301 311 315 313 317 317 320 327 331 332 333 333 341 341 340 345 350 5 140 159 156 157 155 151 146 147 143 138 131 130 127 119 109 99 98 96
290 297 295 301 304 302 301 295 304 309 309 313 316 316 321 325 328 331 334 333 338 343 340 346 355 13 158 165 165 163 163 160 155 157 154 148 142 139 135 128 117 108 105 101
294 306 307 306 305 303 296 299 306 306 310 313 316 318 320 323 327 328 331 331 331 342 337 345 357 5 181 171 174 174 173 169 165 164 165 162 158 155 149 140 132 121 114 112
299 304 305 302 302 302 302 302 304 307 310 312 315 317 318 320 323 325 329 331 329 337 335 338 352 348 214 180 178 182 183 177 175 174 175 177 175 170 165 157 152 139 135 129
Height
10880 10878 10878 10877 10876 10872 10869 10865 10863 10864 10858 10856 10852 10848 10840 10831 10821 10810 10807 10799 10791 10787 10781 10774 10768 10757 10751 10742 10732 10718 10707 10694 10685 10677 10667 10654 10644 10636 10633 10627 10620 10614 10609 10602
10877 10875 10874 10872 10870 10868 10864 10860 10857 10857 10855 10849 10847 10841 10833 10825 10818 10810 10800 10794 10786 10777 10770 10760 10751 10743 10734 10722 10710 10700 10689 10676 10661 10646 10634 10620 10609 10599 10591 10584 10581 10577 10573 10568
10875 10872 10870 10866 10865 10863 10858 10854 10850 10851 10847 10843 10837 10833 10826 10817 10811 10803 10793 10786 10780 10770 10758 10749 10738 10725 10713 10701 10692 10680 10666 10653 10640 10624 10609 10596 10580 10567 10558 10552 10547 10544 10539 10533
10868 10868 10867 10863 10859 10855 10852 10849 10843 10834 10837 10833 10826 10823 10816 10806 10798 10791 10782 10774 10767 10755 10743 10734 10723 10706 10696 10683 10669 10653 10640 10627 10611 10596 10583 10571 10557 10543 10531 10521 10517 10514 10512 10506
10865 10861 10859 10857 10855 10852 10847 10840 10836 10831 10826 10822 10814 10810 10803 10795 10787 10779 10769 10762 10751 10736 10726 10714 10702 10687 10676 10663 10645 10632 10616 10602 10585 10570 10556 10544 10532 10523 10511 10502 10493 10488 10485 10483
10858 10856 10853 10850 10850 10846 10840 10834 10828 10821 10817 10814 10807 10799 10791 10783 10775 10764 10755 10745 10733 10720 10711 10697 10683 10671 10656 10640 10629 10612 10596 10582 10566 10552 10537 10524 10513 10503 10494 10485 10477 10472 10467 10464
10853 10849 10845 10843 10839 10836 10832 10827 10821 10812 10806 10801 10793 10787 10777 10770 10761 10749 10740 10729 10714 10705 10697 10680 10669 10656 10637 10621 10606 10590 10575 10561 10547 10533 10520 10507 10496 10485 10476 10469 10463 10457 10453 10449
10846 10843 10840 10836 10833 10826 10821 10814 10812 10809 10802 10797 10787 10777 10766 10756 10746 10735 10725 10711 10698 10691 10681 10667 10658 10639 10624 10608 10593 10579 10565 10551 10536 10521 10507 10495 10484 10473 10463 10456 10449 10443 10438 10435
10838 10836 10834 10830 10826 10818 10813 10804 10801 10797 10791 10783 10774 10763 10750 10738 10728 10719 10709 10698 10688 10681 10669 10657 10642 10628 10615 10598 10584 10570 10556 10542 10528 10515 10503 10491 10479 10467 10457 10448 10440 10433 10428 10423
10827 10823 10825 10821 10817 10813 10806 10798 10793 10787 10778 10770 10761 10750 10741 10728 10718 10709 10700 10689 10680 10670 10658 10647 10632 10614 10601 10588 10577 10564 10549 10536 10525 10513 10500 10487 10475 10465 10454 10444 10436 10428 10422 10417
10820 10813 10813 10808 10806 10802 10797 10785 10780 10775 10764 10757 10750 10739 10727 10717 10708 10701 10692 10680 10671 10661 10649 10634 10620 10607 10593 10582 10571 10557 10545 10536 10525 10513 10501 10489 10478 10467 10456 10446 10436 10427 10420 10414
10812 10807 10804 10798 10792 10791 10786 10778 10769 10759 10752 10744 10738 10728 10717 10708 10700 10692 10681 10672 10662 10647 10636 10624 10611 10599 10586 10576 10565 10553 10544 10536 10527 10517 10506 10495 10484 10473 10463 10453 10443 10434 10425 10417
10806 10800 10795 10787 10781 10781 10775 10768 10757 10750 10739 10732 10724 10716 10705 10698 10690 10682 10671 10660 10649 10638 10627 10614 10602 10591 10580 10571 10561 10551 10544 10537 10529 10522 10513 10504 10493 10483 10473 10465 10455 10446 10437 10430
10797 10792 10784 10777 10774 10767 10762 10757 10744 10736 10728 10720 10712 10703 10694 10686 10678 10670 10661 10653 10641 10628 10617 10605 10595 10585 10576 10568 10559 10551 10545 10538 10532 10527 10519 10511 10503 10494 10486 10479 10471 10462 10454 10446
10785 10782 10776 10766 10764 10755 10748 10744 10735 10723 10717 10712 10703 10694 10686 10678 10670 10661 10651 10640 10628 10616 10606 10595 10586 10579 10571 10565 10557 10551 10546 10541 10536 10531 10525 10518 10511 10504 10498 10493 10486 10478 10471 10465
10774 10769 10764 10758 10748 10740 10735 10728 10722 10715 10709 10702 10694 10687 10680 10669 10660 10652 10641 10629 10615 10604 10595 10588 10578 10572 10566 10561 10556 10552 10548 10544 10539 10535 10531 10525 10520 10515 10510 10504 10499 10494 10487 10482
10772 10762 10752 10747 10736 10729 10723 10718 10711 10704 10697 10691 10685 10679 10673 10663 10653 10644 10634 10624 10612 10601 10586 10576 10570 10565 10562 10559 10555 10553 10550 10546 10542 10539 10536 10532 10529 10525 10521 10516 10511 10506 10501 10497
10758 10751 10743 10733 10728 10721 10713 10710 10704 10698 10692 10684 10679 10672 10665 10656 10647 10637 10627 10617 10606 10596 10584 10571 10564 10561 10559 10557 10555 10554 10551 10549 10547 10545 10543 10540 10538 10535 10532 10529 10525 10519 10515 10510
10737 10735 10730 10722 10719 10713 10708 10703 10697 10692 10685 10677 10672 10666 10660 10652 10643 10632 10621 10610 10600 10589 10580 10572 10566 10562 10559 10556 10556 10555 10555 10554 10553 10551 10551 10548 10546 10544 10541 10539 10536 10532 10527 10523
10731 10725 10720 10713 10713 10708 10703 10699 10695 10687 10679 10672 10665 10660 10655 10646 10639 10627 10616 10605 10595 10587 10581 10574 10569 10564 10559 10557 10557 10558 10559 10559 10559 10558 10556 10555 10553 10551 10550 10547 10545 10542 10539 10535
10720 10716 10711 10707 10704 10700 10697 10694 10688 10684 10677 10668 10660 10651 10643 10638 10630 10621 10611 10602 10595 10586 10580 10574 10568 10564 10559 10559 10559 10560 10562 10563 10563 10562 10561 10560 10559 10558 10557 10556 10554 10551 10548 10545
10711 10709 10707 10701 10697 10695 10691 10687 10682 10677 10669 10664 10656 10648 10640 10633 10625 10617 10608 10599 10592 10584 10578 10573 10567 10562 10560 10560 10560 10562 10564 10565 10566 10566 10566 10565 10564 10563 10563 10562 10561 10559 10556 10554
10704 10702 10699 10694 10691 10687 10684 10680 10673 10669 10663 10657 10652 10644 10636 10628 10621 10614 10606 10598 10590 10582 10577 10572 10567 10562 10561 10561 10562 10564 10566 10568 10568 10569 10569 10569 10568 10568 10568 10567 10567 10565 10563 10561
10699 10696 10692 10688 10683 10680 10674 10672 10667 10661 10656 10650 10643 10637 10629 10623 10617 10609 10601 10593 10587 10581 10575 10571 10566 10562 10562 10563 10564 10566 10567 10569 10570 10571 10572 10572 10572 10572 10573 10572 10570 10570 10569 10567
10692 10690 10686 10681 10677 10674 10670 10665 10660 10652 10647 10641 10635 10629 10623 10616 10610 10604 10598 10591 10584 10579 10573 10570 10566 10563 10562 10563 10565 10567 10568 10569 10571 10573 10574 10574 10574 10574 10574 10574 10574 10572 10572 10571
10686 10683 10679 10676 10672 10667 10663 10658 10652 10647 10640 10633 10629 10621 10614 10609 10604 10598 10593 10587 10581 10577 10572 10568 10566 10563 10563 10563 10565 10567 10569 10570 10571 10573 10575 10576 10577 10576 10576 10576 10575 10574 10574 10574